Wind_Speed
20 19 12 11 17 20 26 22 15 19 21 34 30 38 31 30 36 38 30 17 16 14 17 28 38 39 40 43 43 47 50 51 45 43 46 47 45 42 42 43 42 41 42 43
21 11 11 17 19 18 22 25 23 19 23 33 24 33 32 33 38 38 38 32 24 16 19 21 25 34 37 40 42 42 43 45 42 36 39 43 43 45 47 47 52 44 44 46
20 10 7 14 25 15 20 25 26 31 32 34 25 30 36 31 34 33 36 38 35 24 20 21 26 23 30 32 36 39 37 39 36 34 35 38 40 42 43 46 41 45 48 45
16 12 10 14 20 16 13 25 28 28 35 36 33 24 33 28 30 34 34 32 38 33 24 23 19 23 27 26 28 32 34 33 34 35 38 38 36 36 37 40 43 41 41 41
10 10 9 30 34 26 12 24 30 31 33 38 38 24 28 27 28 29 26 29 30 30 29 24 20 22 19 23 26 24 24 25 26 28 30 34 35 34 36 39 38 38 33 39
15 16 10 22 26 19 19 14 32 30 31 34 39 39 41 41 35 22 26 25 24 27 25 24 27 22 19 20 28 23 30 27 28 26 29 27 30 33 35 38 40 43 42 42
19 8 14 23 25 13 23 23 29 29 29 29 29 28 30 34 35 31 24 22 22 24 25 22 24 20 19 17 23 24 25 28 31 31 31 32 33 32 32 35 35 40 36 29
14 12 11 22 21 22 16 17 23 26 28 28 26 26 26 27 31 33 30 23 23 18 18 19 23 21 17 22 19 19 18 21 30 32 33 32 28 31 33 31 32 32 34 34
8 10 9 13 15 15 17 19 22 25 29 29 29 26 26 25 24 25 27 27 24 23 20 17 15 16 18 20 14 17 13 19 20 27 29 37 34 33 32 34 34 35 33 28
2 9 10 11 16 19 21 22 25 27 30 32 34 31 27 23 23 22 21 22 25 23 21 19 18 18 16 12 16 17 11 9 11 13 17 26 26 28 36 35 35 35 33 27
5 10 12 12 19 23 25 26 27 28 30 31 33 35 34 30 23 21 20 19 17 19 16 16 16 17 14 13 13 6 10 11 7 6 12 16 19 25 36 37 32 36 34 33
8 12 14 18 22 25 28 27 28 28 30 30 30 32 34 35 32 27 22 20 18 16 14 10 7 14 16 16 15 15 10 4 5 9 4 1 7 15 21 24 29 29 29 34
11 15 19 21 24 27 30 30 29 30 30 31 30 31 31 32 32 34 29 26 25 23 19 17 14 12 11 13 12 10 10 13 8 1 4 8 10 4 3 10 22 26 24 28
13 17 21 23 29 31 30 30 32 32 30 30 30 30 31 31 30 30 32 32 32 31 27 24 22 19 19 17 16 14 11 7 6 7 7 3 2 5 11 8 6 4 5 14
16 20 24 29 29 31 31 33 34 33 33 33 32 30 28 29 30 30 30 30 32 34 32 31 29 26 26 26 23 21 19 18 14 10 9 9 9 7 7 7 8 7 6 4
21 25 28 30 33 34 33 34 35 36 36 39 36 31 27 26 27 28 28 28 28 28 32 34 35 32 32 31 31 29 27 24 24 22 18 15 15 13 11 11 11 11 10 9
25 29 32 36 36 37 36 36 37 40 41 40 36 31 26 24 25 25 26 27 28 30 29 29 32 34 36 37 36 37 36 34 30 28 29 26 24 22 20 18 15 14 14 15
27 31 36 35 35 38 38 40 41 41 42 38 32 28 25 24 25 26 25 26 27 28 28 28 28 29 30 37 41 42 42 42 40 38 34 33 32 31 29 28 26 24 20 18
33 33 33 35 35 37 41 42 40 41 40 33 29 26 26 26 26 25 25 25 24 25 24 26 29 28 29 30 35 42 45 47 47 47 45 42 39 38 37 36 34 32 29 29
30 32 33 34 38 40 40 38 40 40 32 27 27 27 26 23 23 22 21 20 20 23 24 26 27 29 29 29 31 36 41 49 51 53 52 51 49 47 44 42 41 40 37 36
30 30 35 40 42 39 37 40 38 31 25 25 27 25 24 21 18 20 21 21 20 21 24 26 27 27 27 29 30 30 34 41 50 57 57 56 52 51 51 51 48 46 44 42
31 37 42 42 40 38 38 34 28 26 26 26 26 24 24 23 23 22 23 23 19 20 23 25 26 25 25 28 30 30 30 31 38 45 53 58 58 52 47 48 51 51 51 49
38 41 40 39 38 39 34 26 24 25 26 27 25 24 24 23 24 24 21 18 22 23 24 25 23 24 25 27 28 27 25 26 28 32 35 45 52 52 51 45 41 40 41 42
39 39 39 37 36 31 27 26 26 26 27 27 27 25 25 22 21 20 21 22 23 23 24 23 21 22 23 25 26 26 22 24 25 25 26 33 42 43 42 46 45 43 40 38
41 38 36 33 28 26 27 29 29 29 26 24 24 21 20 20 20 20 21 23 24 23 23 20 19 19 21 22 22 21 18 20 21 22 23 27 31 34 34 35 38 44 46 45
37 34 29 25 26 28 29 28 25 25 23 21 20 18 17 18 20 22 23 22 23 21 19 16 16 16 17 18 19 17 18 18 20 22 25 26 28 31 34 36 36 36 36 38
30 25 24 25 25 24 21 21 22 21 20 20 20 19 17 17 18 18 19 19 18 16 15 13 15 15 16 17 19 20 20 21 23 24 25 27 30 32 34 37 38 39 38 38
Wind_Direction
307 288 285 49 37 31 34 31 26 3 12 5 15 15 12 10 24 42 78 123 178 190 215 216 212 215 214 216 220 221 223 226 229 224 223 228 231 231 232 228 226 224 226 227
307 283 120 63 26 21 32 34 22 20 15 8 20 18 20 19 11 25 56 84 99 154 176 195 205 212 216 218 221 223 226 229 232 227 222 224 229 228 230 229 225 226 226 234
297 316 259 31 4 358 25 32 25 17 5 7 18 19 23 26 19 21 32 55 78 92 115 149 182 190 211 218 219 221 224 226 229 223 222 221 224 227 227 231 229 231 233 237
292 307 71 26 7 5 57 32 21 11 9 3 12 20 22 42 32 18 22 21 65 83 97 115 133 168 192 197 212 216 217 222 222 219 222 221 223 222 221 226 236 227 225 238
315 31 88 14 9 16 65 23 15 5 5 0 2 9 32 34 37 29 18 27 26 47 83 105 117 145 166 179 194 207 211 208 211 212 211 215 217 210 213 220 221 227 229 232
14 65 44 5 356 358 335 358 1 358 359 1 357 11 2 4 16 25 23 26 31 30 36 80 111 102 136 159 172 200 204 204 207 206 204 206 207 205 213 219 223 231 233 226
27 38 44 16 7 13 29 345 344 348 352 360 6 359 349 350 360 15 21 18 22 32 25 31 41 112 122 110 154 154 185 186 203 207 207 207 210 212 215 219 222 223 223 218
22 22 20 9 9 28 359 346 342 343 344 346 349 346 348 354 350 355 6 20 15 18 37 30 32 30 55 101 97 126 156 173 190 188 198 205 206 206 213 218 232 238 242 230
39 23 4 3 6 0 353 345 340 337 336 335 335 338 337 340 345 348 352 357 15 10 10 34 40 42 25 36 72 62 104 165 170 189 197 201 204 200 221 221 216 220 219 226
349 352 349 351 351 346 344 338 332 326 322 322 320 323 325 326 328 334 340 345 349 0 0 10 15 22 34 38 25 24 34 105 121 161 188 203 204 200 214 215 208 212 214 219
331 329 344 329 339 338 339 335 331 325 318 313 309 308 308 310 312 313 317 323 330 337 352 352 354 355 4 18 21 27 33 3 360 64 168 182 186 208 216 219 219 211 205 216
296 320 324 323 328 335 332 331 331 327 324 321 318 311 304 298 296 296 297 300 301 301 305 315 307 324 333 345 1 13 10 40 319 313 303 242 183 182 194 200 204 205 210 221
297 307 314 323 326 325 325 327 328 327 325 320 317 311 307 304 298 287 284 282 285 285 284 284 279 276 289 298 311 330 352 352 355 318 263 289 293 289 262 199 190 185 189 200
296 310 316 318 319 323 326 325 323 321 321 318 315 311 304 300 299 297 285 278 275 276 276 275 274 269 258 259 273 281 287 291 311 320 321 237 258 277 270 276 272 243 214 203
296 305 310 315 319 320 319 319 321 320 319 319 317 313 305 301 297 296 295 287 276 273 272 271 267 264 263 264 258 261 266 270 267 257 262 287 294 244 227 226 245 265 250 234
302 309 312 313 316 320 319 319 319 318 319 321 320 316 310 306 302 299 296 294 289 276 269 267 264 262 261 258 258 256 252 254 260 259 256 251 258 260 278 282 241 219 230 251
306 310 312 315 313 315 317 317 318 319 319 321 318 315 312 307 305 302 296 292 289 287 281 274 268 262 258 258 256 257 256 251 247 248 250 251 246 248 252 253 264 276 263 235
302 306 309 310 312 315 315 318 319 318 318 318 315 312 311 307 305 303 299 292 287 288 289 289 279 270 262 257 255 253 255 254 251 246 242 244 246 246 244 247 249 250 252 260
307 309 310 311 314 314 316 317 317 317 318 315 313 311 309 308 305 303 301 298 300 293 289 284 282 275 265 261 258 255 253 253 255 253 247 242 240 242 245 246 245 247 249 250
310 311 312 315 316 318 318 317 316 316 317 314 314 313 312 310 307 306 304 309 305 297 291 285 282 280 274 268 267 265 259 254 252 252 253 251 247 243 241 242 244 245 246 247
314 314 318 322 321 320 319 319 317 317 318 318 315 312 312 311 305 309 311 312 310 301 299 293 287 286 280 278 279 273 265 259 253 250 252 253 252 250 249 246 244 243 245 247
316 321 323 321 322 321 321 320 319 320 320 321 319 311 308 309 307 305 312 311 310 310 308 299 287 282 278 280 279 281 280 273 263 259 252 249 251 252 254 254 253 251 249 249
322 322 323 325 323 322 323 324 323 321 323 322 319 316 313 313 309 306 305 303 307 304 304 309 291 283 277 277 279 282 277 276 274 264 257 251 248 251 254 255 255 255 255 255
325 327 326 324 323 323 325 328 327 328 328 326 323 315 309 313 312 304 302 303 304 303 303 303 299 288 277 275 280 281 276 282 279 271 256 248 245 247 252 254 255 255 258 258
328 326 326 326 328 329 332 330 330 332 334 332 327 318 310 308 312 309 305 304 304 304 301 297 298 293 284 281 283 280 274 282 277 269 259 251 244 246 248 251 254 255 256 256
331 331 333 336 336 335 333 335 343 346 346 348 346 341 331 322 319 319 315 312 309 304 303 294 293 296 291 286 283 277 272 278 284 274 262 256 251 249 250 252 255 259 260 259
336 338 341 340 337 340 350 355 357 2 6 8 8 6 2 353 345 339 335 330 328 322 316 300 298 298 303 295 286 280 272 264 260 265 269 265 259 256 252 248 248 252 257 260
Height
3028 3024 3022 3018 3016 3015 3010 3008 3006 3005 3000 2992 2985 2980 2971 2964 2944 2936 2934 2935 2939 2941 2942 2946 2952 2958 2965 2971 2977 2983 2989 2996 3005 3014 3019 3025 3031 3038 3044 3049 3056 3058 3063 3067
3022 3017 3016 3017 3017 3017 3015 3011 3008 3005 3001 2995 2988 2980 2969 2960 2954 2944 2936 2934 2935 2938 2939 2942 2945 2950 2957 2963 2970 2975 2981 2987 2995 3002 3008 3015 3020 3027 3032 3039 3043 3047 3053 3059
3017 3015 3015 3018 3020 3018 3017 3012 3008 3002 3003 2996 2987 2981 2973 2965 2959 2956 2941 2939 2933 2936 2934 2936 2939 2945 2951 2957 2962 2968 2973 2978 2985 2992 2999 3006 3012 3017 3021 3026 3032 3037 3043 3047
3017 3013 3018 3028 3023 3018 3017 3015 3011 3007 3001 2996 2991 2988 2980 2969 2968 2956 2949 2947 2936 2934 2935 2933 2935 2939 2947 2951 2957 2961 2966 2972 2978 2984 2989 2996 3002 3007 3012 3016 3023 3028 3034 3038
3019 3015 3020 3018 3016 3015 3013 3012 3011 3007 3002 2994 2987 2982 2976 2971 2966 2965 2966 2951 2944 2944 2934 2933 2934 2936 2940 2943 2949 2955 2961 2966 2971 2976 2982 2987 2993 2998 3002 3007 3013 3019 3026 3031
3023 3021 3027 3031 3023 3018 3011 3008 3007 3008 3004 2997 2985 2973 2975 2971 2966 2964 2955 2956 2959 2948 2948 2937 2933 2935 2936 2939 2942 2948 2953 2961 2965 2970 2976 2982 2986 2991 2996 3001 3007 3012 3015 3019
3029 3026 3032 3032 3027 3021 3018 3022 3009 3003 2999 3000 2996 2992 2985 2976 2971 2968 2965 2960 2954 2951 2948 2943 2941 2934 2934 2938 2937 2942 2949 2953 2959 2964 2969 2975 2979 2985 2990 2995 3000 3003 3005 2998
3036 3035 3035 3034 3031 3027 3029 3023 3015 3007 2999 2996 2997 2992 2987 2981 2973 2969 2966 2962 2962 2962 2954 2950 2946 2947 2945 2935 2937 2938 2943 2946 2953 2957 2963 2968 2972 2978 2983 2987 2991 2996 3000 3003
3044 3043 3041 3038 3035 3032 3028 3023 3017 3010 3003 2996 2992 2994 2990 2986 2984 2978 2973 2968 2965 2958 2953 2953 2954 2949 2958 2938 2940 2942 2941 2941 2946 2951 2957 2961 2966 2970 2974 2978 2983 2988 2993 2998
3045 3043 3040 3038 3035 3031 3027 3023 3017 3011 3005 2999 2992 2988 2988 2987 2981 2978 2973 2969 2967 2963 2960 2957 2956 2952 2946 2946 2950 2951 2944 2941 2945 2949 2950 2956 2961 2956 2966 2971 2973 2979 2985 2991
3044 3042 3039 3037 3033 3028 3023 3019 3014 3008 3001 2996 2990 2984 2981 2979 2980 2979 2975 2972 2968 2966 2965 2961 2957 2959 2959 2961 2955 2949 2948 2951 2949 2948 2949 2954 2955 2959 2963 2965 2968 2972 2979 2984
3041 3039 3037 3034 3029 3025 3021 3016 3010 3005 2999 2992 2986 2979 2974 2970 2969 2968 2969 2970 2968 2968 2966 2965 2965 2961 2957 2955 2955 2954 2952 2953 2953 2952 2952 2953 2953 2954 2956 2959 2962 2966 2969 2974
3038 3035 3033 3029 3026 3022 3016 3010 3006 3000 2996 2989 2983 2976 2971 2966 2961 2959 2960 2960 2961 2963 2964 2964 2963 2959 2959 2961 2959 2956 2955 2956 2957 2956 2956 2956 2955 2953 2955 2957 2957 2959 2963 2966
3034 3032 3029 3026 3021 3017 3012 3006 3001 2996 2991 2985 2979 2972 2965 2959 2955 2952 2950 2950 2950 2950 2951 2952 2953 2955 2956 2957 2957 2958 2960 2960 2959 2959 2959 2957 2955 2954 2959 2959 2959 2958 2959 2962
3031 3028 3025 3021 3017 3012 3007 3001 2994 2988 2982 2976 2971 2965 2959 2952 2948 2945 2943 2942 2941 2942 2943 2944 2945 2947 2947 2947 2949 2951 2953 2955 2957 2958 2959 2957 2956 2957 2959 2959 2959 2960 2962 2963
3026 3023 3020 3015 3010 3005 3000 2994 2987 2980 2973 2966 2960 2955 2950 2946 2943 2939 2937 2935 2933 2932 2933 2934 2935 2938 2939 2940 2940 2942 2944 2945 2948 2950 2951 2953 2955 2957 2957 2955 2955 2957 2960 2962
3021 3017 3013 3008 3003 2997 2992 2986 2979 2971 2963 2958 2951 2947 2943 2940 2937 2934 2931 2928 2926 2924 2924 2924 2925 2928 2929 2930 2932 2934 2935 2938 2939 2943 2944 2947 2949 2951 2953 2954 2955 2955 2956 2956
3016 3011 3007 3001 2994 2988 2981 2975 2969 2962 2955 2949 2943 2939 2936 2933 2930 2927 2924 2922 2919 2918 2917 2917 2916 2917 2918 2919 2921 2924 2925 2927 2930 2933 2935 2938 2941 2944 2945 2948 2950 2951 2953 2953
3008 3003 2998 2993 2986 2979 2972 2966 2959 2953 2946 2940 2936 2933 2929 2926 2923 2920 2917 2915 2914 2911 2910 2908 2906 2906 2908 2910 2910 2911 2914 2916 2919 2921 2924 2927 2930 2933 2935 2937 2941 2943 2945 2947
3000 2995 2989 2983 2977 2970 2963 2957 2950 2943 2938 2933 2929 2925 2922 2919 2916 2913 2910 2909 2907 2903 2901 2900 2899 2897 2898 2900 2901 2901 2901 2903 2905 2908 2910 2914 2918 2920 2923 2925 2928 2931 2934 2937
2992 2986 2979 2973 2966 2960 2954 2947 2940 2935 2931 2927 2923 2919 2915 2913 2910 2907 2904 2902 2900 2897 2894 2892 2890 2889 2889 2889 2889 2889 2888 2888 2890 2893 2895 2898 2902 2905 2909 2913 2915 2917 2921 2924
2983 2977 2970 2963 2956 2950 2945 2938 2932 2928 2924 2921 2917 2913 2909 2906 2903 2901 2899 2895 2893 2890 2887 2884 2882 2881 2881 2879 2878 2878 2877 2877 2877 2877 2879 2883 2887 2891 2895 2899 2902 2905 2907 2911
2975 2968 2960 2954 2947 2940 2934 2931 2927 2923 2919 2915 2910 2906 2902 2899 2896 2893 2892 2890 2887 2884 2881 2878 2875 2873 2872 2870 2869 2868 2868 2868 2867 2866 2866 2869 2873 2878 2882 2886 2889 2892 2893 2896
2965 2958 2952 2946 2939 2933 2929 2926 2922 2918 2913 2908 2903 2899 2894 2893 2890 2887 2885 2883 2880 2877 2874 2871 2868 2865 2863 2862 2861 2861 2860 2860 2859 2857 2857 2860 2862 2867 2870 2874 2877 2879 2881 2884
2957 2950 2944 2938 2933 2929 2925 2920 2915 2911 2906 2902 2897 2893 2889 2886 2885 2882 2879 2876 2873 2869 2866 2864 2861 2858 2856 2856 2855 2854 2854 2853 2852 2852 2852 2853 2855 2858 2861 2863 2865 2867 2869 2871
2950 2943 2937 2933 2928 2924 2920 2915 2911 2906 2902 2898 2894 2890 2887 2884 2881 2877 2873 2870 2866 2863 2860 2857 2855 2852 2851 2850 2849 2849 2849 2848 2847 2847 2847 2847 2848 2849 2851 2853 2855 2856 2857 2859
2945 2939 2934 2931 2926 2921 2917 2913 2909 2905 2901 2897 2893 2889 2885 2882 2878 2874 2869 2866 2862 2858 2855 2853 2851 2849 2847 2845 2844 2843 2842 2842 2841 2841 2840 2839 2839 2840 2841 2842 2844 2845 2846 2847